DW7601 San Vito IT current weather conditions

sailwx.info

Wind from 158 at 0 knots gusting 1

Air temperature 20.0° C
Dewpoint 14.6° C

Last reported at 2015-May-27 12:41 UTC.
Time now 2015-May-27 14:01 UTC

Location: N 39°27' E 009°32'.
View on Google Maps.

See reports from other nearby stations

  
Tides and Currents Weather Stations Pressure Air Temp Water Temp Dewpoint Dewpoint Depression Visibility Wind Speed Wind Dir Waves Ship Positions
date/time (UTC)wind fromknots sea level pressurealtimeterstation pressurevisibilityair tempwater tempwave heightnotes
2015-May-27 12:41 158 0 gusting 1 20.0
2015-May-27 12:31 090 20.0
2015-May-27 12:21 20.6
2015-May-27 12:11 022 0 gusting 1 20.6
2015-May-27 12:01 135 1 gusting 2 20.6
2015-May-27 11:51 21.1
2015-May-27 11:41 090 1 gusting 2 21.7
2015-May-27 11:31 090 2 gusting 6 21.7
2015-May-27 11:21 135 2 gusting 6 22.8
2015-May-27 11:11 068 2 gusting 6 23.3
2015-May-27 11:01 180 2 gusting 6 25.0
2015-May-27 10:51 090 4 gusting 7 26.7
2015-May-27 10:41 068 3 gusting 6 27.2
2015-May-27 10:31 090 3 gusting 6 26.7
2015-May-27 10:21 27.8
2015-May-27 10:11 090 3 gusting 4 27.2
2015-May-27 10:01 180 2 gusting 5 26.7
2015-May-27 09:51 135 2 gusting 4 25.0
2015-May-27 09:41 112 1 gusting 5 23.9
2015-May-27 09:31 24.4
2015-May-27 09:21 022 0 gusting 2 25.6
2015-May-27 09:11 090 0 gusting 2 26.7
2015-May-27 09:01 338 1 gusting 2 26.7
2015-May-27 08:51 26.1
2015-May-27 08:41 090 1 gusting 4 25.0
2015-May-27 08:31 338 2 gusting 5 24.4
2015-May-27 08:21 022 2 gusting 5 23.9
2015-May-27 08:11 022 4 gusting 5 23.3
2015-May-27 08:01 338 4 gusting 6 22.8
2015-May-27 07:51 22.8
2015-May-27 07:41 22.2
2015-May-27 07:31 21.7
2015-May-27 07:21 21.1
2015-May-27 07:11 20.6
2015-May-27 07:01 045 2 gusting 5 20.0
2015-May-27 06:51 068 2 gusting 6 19.4
2015-May-27 06:41 045 2 gusting 5 19.4
2015-May-27 06:31 338 4 gusting 5 18.9
2015-May-27 06:21 022 1 gusting 4 18.3
2015-May-27 06:11 022 1 gusting 2 17.8
2015-May-27 06:01 018 1 gusting 4 17.2
2015-May-27 05:51 021 1 gusting 4 17.2
2015-May-27 05:41 001 1 gusting 5 16.7
2015-May-27 05:31 315 1 gusting 4 16.1
2015-May-27 05:21 022 1 gusting 4 16.1
2015-May-27 05:11 044 1 gusting 5 16.1
2015-May-27 05:01 004 1 gusting 5 16.1
2015-May-27 04:51 067 1 gusting 4 15.6
2015-May-27 04:41 067 1 gusting 2 15.6
2015-May-27 04:31 022 1 gusting 4 15.6
2015-May-27 04:21 088 1 gusting 1 15.6
2015-May-27 04:11 024 0 gusting 1 15.6
2015-May-27 04:01 068 15.6
2015-May-27 03:51 019 15.6
2015-May-27 03:41 046 15.6
2015-May-27 03:31 067 15.6
2015-May-27 03:21 112 15.6
2015-May-27 03:11 065 0 gusting 1 16.1
2015-May-27 03:01 004 0 gusting 1 15.6
2015-May-27 02:51 003 0 gusting 1 16.1
2015-May-27 02:41 067 1 gusting 6 16.7
2015-May-27 02:31 022 1 gusting 6 16.7
2015-May-27 02:21 022 2 gusting 4 16.7
2015-May-27 02:11 045 2 gusting 5 16.7
2015-May-27 02:01 350 1 gusting 5 16.7
2015-May-27 01:51 295 1 gusting 4 16.7
2015-May-27 01:41 022 1 gusting 4 16.7
2015-May-27 01:31 295 2 gusting 5 16.7
2015-May-27 01:21 16.7
2015-May-27 01:11 336 2 gusting 1 16.7
2015-May-27 01:01 284 2 gusting 4 16.7
2015-May-27 00:51 359 1 gusting 4 16.7
2015-May-27 00:41 021 2 gusting 5 16.7
2015-May-27 00:31 340 1 gusting 4 16.7
2015-May-27 00:21 021 1 gusting 2 16.7
2015-May-27 00:11 273 1 gusting 2 16.7
2015-May-27 00:01 346 2 gusting 5 16.7
2015-May-26 23:51 336 1 gusting 4 16.7
2015-May-26 23:41 294 1 gusting 4 16.7
2015-May-26 23:31 340 1 gusting 5 16.7
2015-May-26 23:21 021 2 gusting 4 16.7
2015-May-26 23:11 066 1 gusting 2 16.7
2015-May-26 23:01 004 1 gusting 2 16.7
2015-May-26 22:51 336 1 gusting 4 16.7
2015-May-26 22:41 019 1 gusting 2 16.7
2015-May-26 22:31 185 2 gusting 4 16.7
2015-May-26 22:21 17.2
2015-May-26 22:11 338 2 gusting 4 17.2
2015-May-26 22:01 338 2 gusting 6 17.2
2015-May-26 21:51 021 2 gusting 4 17.2
2015-May-26 21:41 021 2 gusting 6 17.2
2015-May-26 21:31 292 1 gusting 4 17.2
2015-May-26 21:21 339 1 gusting 5 17.2
2015-May-26 21:11 338 2 gusting 5 17.2
2015-May-26 21:01 270 2 gusting 5 16.7
2015-May-26 20:51 338 2 gusting 5 16.7
2015-May-26 20:41 338 2 gusting 5 16.7
2015-May-26 20:31 294 2 gusting 6 16.7
2015-May-26 20:21 021 2 gusting 5 16.1
2015-May-26 20:11 340 3 gusting 5 16.1
2015-May-26 20:01 018 4 gusting 6 16.1
2015-May-26 19:51 339 2 gusting 6 16.1
2015-May-26 19:41 042 2 gusting 5 16.1
2015-May-26 19:31 019 2 gusting 5 15.6
2015-May-26 19:21 019 1 gusting 2 16.1
2015-May-26 19:11 339 1 gusting 4 16.1
2015-May-26 19:01 302 1 gusting 4 16.1
2015-May-26 18:51 021 1 gusting 4 16.1
2015-May-26 18:41 336 2 gusting 5 16.1
2015-May-26 18:31 356 2 gusting 5 16.7
2015-May-26 18:21 293 3 gusting 6 16.7
2015-May-26 18:11 340 4 gusting 6 17.2
2015-May-26 18:01 338 4 gusting 6 17.8
2015-May-26 17:51 340 5 gusting 8 17.8
2015-May-26 17:41 001 6 gusting 12 18.3
2015-May-26 17:31 273 5 gusting 11 18.9
2015-May-26 17:21 359 5 gusting 10 19.4
2015-May-26 17:11 20.0
2015-May-26 17:01 124 6 gusting 11 20.6
2015-May-26 16:51 314 6 gusting 8 21.1
2015-May-26 16:41 318 6 gusting 11 21.7
2015-May-26 16:31 342 6 gusting 11 21.7
2015-May-26 16:21 358 6 gusting 10 22.2
2015-May-26 16:11 272 5 gusting 10 22.8
2015-May-26 16:01 306 5 gusting 10 23.3
2015-May-26 15:51 23.3
2015-May-26 15:41 290 6 gusting 12 22.8
2015-May-26 15:31 315 6 gusting 11 23.9
2015-May-26 15:21 338 7 gusting 15 23.9
2015-May-26 15:11 270 6 gusting 11 24.4
2015-May-26 15:01 347 5 gusting 8 23.9
2015-May-26 14:51 273 5 gusting 8 23.3
2015-May-26 14:41 359 6 gusting 13 23.3
2015-May-26 14:31 270 6 gusting 10 23.9
2015-May-26 14:21 336 7 gusting 11 24.4
2015-May-26 14:11 273 6 gusting 10 25.0
2015-May-26 14:01 244 6 gusting 12 25.6
2015-May-26 13:51 020 5 gusting 12 24.4
2015-May-26 13:41 316 5 gusting 8 24.4
2015-May-26 13:31 25.6
2015-May-26 13:21 273 4 gusting 12 27.2
2015-May-26 13:11 268 4 gusting 10 27.8
2015-May-26 13:01 281 5 gusting 15 27.8
2015-May-26 12:51 271 4 gusting 8 27.2
2015-May-26 12:41 359 6 gusting 10 27.8
2015-May-26 12:31 022 6 gusting 7 27.8
2015-May-26 12:21 294 6 gusting 8 27.2
2015-May-26 12:11 272 6 gusting 13 25.0
2015-May-26 12:01 323 6 gusting 8 25.6
2015-May-26 11:51 295 5 gusting 8 26.1
2015-May-26 11:41 294 5 gusting 12 26.1
2015-May-26 11:31 275 4 gusting 7 26.7
2015-May-26 11:21 294 4 gusting 6 26.7
2015-May-26 11:11 287 5 gusting 13 25.6
2015-May-26 11:01 310 5 gusting 7 26.1
2015-May-26 10:51 291 5 gusting 8 27.8
2015-May-26 10:41 341 4 gusting 6 26.7
2015-May-26 10:31 274 6 gusting 11 27.2
2015-May-26 10:21 204 6 gusting 10 26.1
2015-May-26 10:11 247 4 gusting 10 26.1
2015-May-26 10:01 225 4 gusting 7 26.7
2015-May-26 09:51 315 4 gusting 6 26.7
2015-May-26 09:41 270 4 gusting 6 26.7
2015-May-26 09:31 017 4 gusting 6 26.1
2015-May-26 09:21 335 6 gusting 10 25.6
2015-May-26 09:11 316 6 gusting 11 25.0
2015-May-26 09:01 270 2 gusting 7 25.6
2015-May-26 08:51 290 3 gusting 5 25.6
2015-May-26 08:41 001 4 gusting 6 24.4
2015-May-26 08:31 295 2 gusting 6 25.0
2015-May-26 08:21 314 4 gusting 6 23.9
2015-May-26 08:11 294 4 gusting 6 23.3
2015-May-26 08:01 236 4 gusting 6 22.8
2015-May-26 07:51 181 4 gusting 10 23.3
2015-May-26 07:41 289 4 gusting 10 22.2
2015-May-26 07:31 318 4 gusting 5 21.7
2015-May-26 07:21 336 4 gusting 7 21.7
2015-May-26 07:11 272 2 gusting 6 21.1
2015-May-26 07:01 151 2 gusting 6 20.6
2015-May-26 06:51 020 4 gusting 5 20.0
2015-May-26 06:41 291 4 gusting 6 19.4
2015-May-26 06:31 022 5 gusting 7 18.9
2015-May-26 06:21 021 4 gusting 6 18.3
2015-May-26 06:11 341 4 gusting 6 17.8
2015-May-26 06:01 284 4 gusting 7 17.2
2015-May-26 05:51 359 5 gusting 8 16.7
2015-May-26 05:41 16.7
2015-May-26 05:31 002 5 gusting 6 16.1
2015-May-26 05:21 044 6 gusting 6 15.6
2015-May-26 05:11 022 5 gusting 8 15.6
2015-May-26 05:01 15.6
2015-May-26 04:51 358 1 gusting 5 15.0
2015-May-26 04:41 020 2 gusting 5 15.6
2015-May-26 04:31 002 2 gusting 5 15.6
2015-May-26 04:21 020 4 gusting 5 15.6
2015-May-26 04:11 044 1 gusting 4 15.6
2015-May-26 04:01 278 0 gusting 1 16.1
2015-May-26 03:51 228 2 gusting 6 16.1
2015-May-26 03:41 16.1
2015-May-26 03:31 021 2 gusting 5 16.7
2015-May-26 03:21 359 2 gusting 5 16.7
2015-May-26 03:11 019 2 gusting 4 16.1
2015-May-26 03:01 009 4 gusting 5 16.1
2015-May-26 02:51 020 2 gusting 5 16.7
2015-May-26 02:41 359 1 gusting 5 16.7
2015-May-26 02:31 16.7
2015-May-26 02:21 292 2 gusting 4 16.7
2015-May-26 02:11 16.7
2015-May-26 02:01 338 1 gusting 4 16.7
2015-May-26 01:51 022 1 gusting 2 16.7
2015-May-26 01:41 295 0 gusting 2 16.7
2015-May-26 01:31 182 16.7
2015-May-26 01:21 201 0 gusting 1 16.7
2015-May-26 01:11 189 1 17.2
2015-May-26 01:01 304 1 gusting 4 17.2
2015-May-26 00:51 17.2
2015-May-26 00:41 359 1 gusting 5 17.2
2015-May-26 00:31 316 0 gusting 2 17.2
2015-May-26 00:21 070 0 gusting 0 17.2
2015-May-26 00:11 249 1 gusting 4 17.2
2015-May-26 00:01 346 1 gusting 4 17.2
2015-May-25 23:51 001 1 gusting 2 17.2
2015-May-25 23:41 252 1 gusting 4 17.2
2015-May-25 23:31 022 2 gusting 5 17.2
2015-May-25 23:21 17.2
2015-May-25 23:11 022 1 gusting 5 17.8
2015-May-25 23:01 341 1 gusting 2 17.8
2015-May-25 22:51 341 1 gusting 4 17.8
2015-May-25 22:41 021 1 gusting 4 17.8
2015-May-25 22:31 342 0 gusting 2 17.8
2015-May-25 22:21 225 0 gusting 1 17.8
2015-May-25 22:11 019 0 gusting 2 17.8
2015-May-25 22:01 338 0 gusting 2 17.8
2015-May-25 21:51 359 17.8
2015-May-25 21:41 067 18.3
2015-May-25 21:31 047 18.3
2015-May-25 21:21 001 18.3
2015-May-25 21:11 069 18.3
2015-May-25 21:01 022 18.3
2015-May-25 20:51 225 0 gusting 0 18.9
2015-May-25 20:41 270 0 gusting 1 18.9
2015-May-25 20:31 225 0 gusting 1 18.9
2015-May-25 20:21 090 18.3
2015-May-25 20:11 090 18.9
2015-May-25 20:01 060 0 gusting 0 18.3
2015-May-25 19:51 133 0 gusting 1 18.9
2015-May-25 19:41 111 0 gusting 1 18.9
2015-May-25 19:31 111 0 gusting 1 18.9
2015-May-25 19:21 091 0 gusting 1 18.9
2015-May-25 19:11 134 0 gusting 1 18.9
2015-May-25 19:01 127 0 gusting 1 18.9
2015-May-25 18:51 114 0 gusting 2 19.4
2015-May-25 18:41 090 1 gusting 1 19.4
2015-May-25 18:31 069 0 gusting 4 19.4
2015-May-25 18:21 111 1 gusting 1 19.4
2015-May-25 18:11 091 0 gusting 4 19.4
2015-May-25 18:01 087 0 gusting 2 19.4
2015-May-25 17:51 092 1 gusting 4 20.0
2015-May-25 17:41 201 1 gusting 2 20.6
2015-May-25 17:31 176 1 gusting 4 20.0
2015-May-25 17:21 133 1 gusting 4 20.6
2015-May-25 17:11 115 2 gusting 4 20.6
2015-May-25 17:01 108 1 gusting 5 20.6
2015-May-25 16:51 111 2 gusting 4 21.1
2015-May-25 16:41 069 3 gusting 6 21.1
2015-May-25 16:31 112 2 gusting 4 21.1
2015-May-25 16:21 133 2 gusting 6 21.7
2015-May-25 16:11 092 2 gusting 5 22.2
2015-May-25 16:01 128 2 gusting 6 22.2
2015-May-25 15:51 132 2 gusting 6 22.8
2015-May-25 15:41 091 4 gusting 6 22.2
2015-May-25 15:31 090 4 gusting 6 22.2
2015-May-25 15:21 090 4 gusting 5 22.2
2015-May-25 15:11 135 4 gusting 7 22.8
2015-May-25 15:01 112 2 gusting 5 22.8
2015-May-25 14:51 111 4 gusting 7 23.3
2015-May-25 14:41 201 4 gusting 7 25.0
2015-May-25 14:31 072 4 gusting 7 26.1
2015-May-25 14:21 089 4 gusting 8 26.1
2015-May-25 14:11 113 4 gusting 8 26.1
2015-May-25 14:01 191 4 gusting 6 26.1